Find Starlink 33921

NORAD ID: 65934 Int'l Des: 2025-225 Owner: SPXS Country: US Constellation: starlink operational
LEOCIRCULAR

当前视图

正在加载3D地球...

About Starlink 33921

Starlink 33921 (NORAD 65934) is a starlink constellation satellite (v2 mini) launched Oct 8, 2025 by SPXS of US. It operates in LEO, CIRCULAR orbit with a mass of 575.00 kg.

关于 Starlink 33921

正在加载描述...

即将过境

Passes for default location (London). Set your location on the main map for personalized predictions.

高度历史

Loading altitude history...

两行轨道根数

1 65934U 25225AA 26166.94492984 .00023152 00000-0 79117-3 0 9994
2 65934 53.1595 69.1317 0001307 97.3090 262.8059 15.30208759 38567
Epoch: Jun 15, 2026 • Age: 8 hours

当前状态

高度 475.2 km
速度 7.63 km/s
星下点 17.70°N, 77.61°E
发射日期 Oct 8, 2025
运行时间 0.6 years
类型 internet

技术详情

分类 Payload
质量 575.00 kg
干质量 530.00 kg
总质量 575.00 kg
长度 0.30 m
直径 4.10 m
跨度 29.00 m
形状 Box + pan
制造商 SPXS
平台类型 Starlink V2MO
阶段状态 In Orbit
所有者/国家 SPXS/US

Most Searched